FENGYUN 1C DEB

Satellite information

Favourite Embed

Satellite Type and Status

DEBRISIN ORBIT

Key statistics

Satellite FENGYUN 1C DEB at a glance.

Uptime

9715

Days in orbit

Revolutions

≈ 14.6

Per day

Orbit

SSO

Sun Synchronous Orbit

Inclination

98.3

Latest

Satellite identification and parameters

Extended collection of information and parameters for FENGYUN 1C DEB.

Object identification

Identified? True

Debris? True

Object name: FENGYUN 1C DEB

International designator: 1999-025DUY

Object number (NORAD): 36223

Object ID (CCSDS): 36223

Country: PEOPLES REPUBLIC OF CHINA (PRC)

Current information (Y/N): Y

RCS size: SMALL

Orbital parameters

Period: 98.839 minutes

Inclination: 98.333 deg

SMA: 7081.3 km

Apoapsis: 747.335 km

Periapsis: 658.994 km

RAAN: 300.0384 deg

Eccentricy: 0.0062376

Argument of periapsis: 164.1654 deg

Mean anomaly: 196.1514 deg

Mean motion: 14.56911944 rev/day

Mean motion (dot): 0.00059271 rev/day2

B* drag term: 0.012767 1/REarth

Two-line elements (TLE)

Creation date: Aug. 7, 2025, 2:11 a.m.

Reference frame: TEME

Reference center: EARTH

Epoch: Jan. 3, 2025, 1:05 a.m. UTC

TLE line 0: 0 FENGYUN 1C DEB

TLE line 1: 1 36223U 99025DUY 25003.04532672 .00059271 00000-0 12767-1 0 9998

TLE line 2: 2 36223 98.3330 300.0384 0062376 164.1654 196.1514 14.56911944 30883

Live tracking on map

Real-time ground track for satellite FENGYUN 1C DEB.

In-orbit conjunctions

A list of the most updated potential collisions computed for object FENGYUN 1C DEB.

Target Orbit TCA Probability of collision Miss distance Type
CZ-6A DEB LEO 2024-10-23 18:52:49 0.0001066322 533.0 (m) DEBRIS

Associated space launch

Chinese polar orbiting meteorological satellite

FENGYUN 1C DEB was lifted into orbit during the mission ‘Long March 4B | Feng Yun 1C’, on board a Long March 4B space rocket.

The launch took place on May 10, 1999, 1:33 a.m. from Launch Complex 7.

For more information about the launch, click the button.

Launch to space Long March 4B | Feng Yun 1C
Long March 4B | Feng Yun 1C

Agency: N/A

Status: Launch Successful

Launch date: May 10, 1999, 1:33 a.m. UTC

Rocket: Long March 4B

Launch pad: Launch Complex 7

Location: Taiyuan Satellite Launch Center, People's Republic of China

...

Latest news about this satellite

There are no fresh news available about this satellite. Check back as we update our databases every day.


Newsletter sign-up

Weekly statistics, charts and insights to help you stay on top of the space industry.